Regional Weather Roundup
Issued by NWS

Home | Current Version | Previous Version | Graphics & Text | Print | Product List | Glossary On
Versions: 1 2 3 4 5 6 7 8 9 10 11 12 13 14 15 16 17 18 19 20 21 22 23 24 25 26 27
000
ASUS45 KBOU 230607
RWRCO

WEATHER ROUNDUP FOR COLORADO
NATIONAL WEATHER SERVICE DENVER/BOULDER CO
1200 AM MDT SUN APR 23 2017

NOTE: "FAIR" INDICATES FEW OR NO CLOUDS BELOW 12000 FEET WITH NO
SIGNIFICANT WEATHER AND/OR OBSTRUCTIONS TO VISIBILITY.

COZ001>005-013-030-031-230700-
...NORTHWEST COLORADO...

CITY           SKY/WX    TMP DP  RH WIND       PRES   REMARKS
CRAIG          FAIR      33  27  78 CALM      30.13S
HAYDEN         FAIR      37  21  52 SE6       30.14S
MEEKER         FAIR      38  25  59 E7        30.14S
MOUNT WERNER   NOT AVBL
STEAMBOAT SPGS FAIR      36  24  62 CALM      30.15S
WALDEN           N/A     30  23  74 SE7       30.19S WCI  23
$$

COZ006>008-011-230700-
...WEST CENTRAL VALLEYS...

CITY           SKY/WX    TMP DP  RH WIND       PRES   REMARKS
GRAND JUNCTION FAIR      48  20  32 E6        30.08F
MONTROSE       FAIR      44  19  36 SE12      30.17S
EAGLE          FAIR      36  25  64 E5        30.20S
RIFLE          FAIR      42  26  53 CALM      30.14R
DELTA          FAIR      49  21  34 E7        30.14S
NUCLA          FAIR      45  18  33 E10       30.19R
$$

COZ017>023-064>068-230700-
...SOUTHWEST COLORADO...

CITY           SKY/WX    TMP DP  RH WIND       PRES   REMARKS
DURANGO        FAIR      38  20  48 N8        30.19F
CORTEZ         FAIR      37  22  54 E5        30.17F
PAGOSA SPRINGS FAIR      41  19  41 CALM      30.25R
TELLURIDE      FAIR      41  19  41 E13       30.28F
WOLF CREEK PAS FAIR      28  14  54 SW17      30.42R WCI  16
$$

COZ009-010-012-014-032>034-037-058>063-230700-
...CENTRAL COLORADO...

CITY           SKY/WX    TMP DP  RH WIND       PRES   REMARKS
ASPEN          FAIR      32  20  61 S7        30.19F WCI  26
BUENA VISTA    FAIR      34  26  74 CALM      30.28S
COPPER MTN     FAIR      32  14  47 S18       30.32F WCI  20
BERTHOUD PASS  FAIR      23  12  63 NW16      30.30F WCI  10
COTTONWOOD PAS FAIR      34  23  64 CALM      30.31S
GUNNISON       FAIR      34  21  59 CALM      30.24S
KREMMLING      FAIR      36  30  80 CALM      30.21R
LEADVILLE      FAIR      25  19  78 NE3       30.28S
MONARCH PASS   FAIR      28  18  64 SW20      30.46S WCI  15
SALIDA         FAIR      36  26  67 SW5       30.35S
SUNLIGHT       FAIR      28  19  69 SW14G22   30.31F WCI  17
WILKERSON PASS FAIR      25  19  80 SW13G18   30.33F WCI  13
$$

COZ069>075-230700-
...SAN LUIS VALLEY/SANGRE DE CRISTO MOUNTAINS...

CITY           SKY/WX    TMP DP  RH WIND       PRES   REMARKS
ALAMOSA        FAIR      36  27  69 SE8       30.24R
LA VETA PASS   FAIR      28  25  86 SW12G18   30.42F WCI  18
SAGUACHE       FAIR      32  18  55 NW6       30.27R WCI  26
$$

COZ035-036-038>040-230700-
...NORTHERN COLORADO FRONT RANGE...

CITY           SKY/WX    TMP DP  RH WIND       PRES   REMARKS
DENVER INTL AP FAIR      45  33  63 S20       30.15F
DMNS CITY PARK   N/A     47  32  55 SE14      30.14F
AURORA         CLEAR     43  33  67 S18G25    30.16F
FRONT RANGE AP FAIR      45  34  65 S16       30.17F
ERIE MUNI ARPT FAIR      45  33  63 S5        30.14F
BOULDER MUN AP FAIR      41  32  70 CALM      30.13F
CENTENNIAL     FAIR      43  33  68 S17G26    30.17F
BROOMFIELD     FAIR      43  32  65 SE6       30.15F
FORT COLLINS   FAIR      42  32  67 S6        30.14F
LONGMONT       FAIR      41  33  74 CALM      30.16F
$$

COZ041-046-047-076>085-087-088-230700-
...PIKES PEAK/PALMER DIVIDE AND SOUTHERN FOOTHILLS...

CITY           SKY/WX    TMP DP  RH WIND       PRES   REMARKS
COLO. SPRINGS  FAIR      39  32  76 SE8       30.25F
A. F. ACADEMY  FAIR      37  31  77 S7        30.23F
SCHRIEVER AFB  FAIR      35  31  83 S9        30.26F WCI  28
ELLICOTT       FAIR     N/A N/A N/A S7        30.24F
FALCON         FAIR      35  30  80 S9        30.26F WCI  28
FORT CARSON    FAIR      41  32  69 S10       30.24F
LIMON          FAIR      38  34  85 S9        30.22F
MONUMENT HILL  FAIR      34  30  86 S15       30.23F WCI  24
TRINIDAD       FAIR      36  31  82 W13       30.27F
$$

COZ042>045-048>051-090-091-230700-
...NORTHEAST COLORADO...

CITY           SKY/WX    TMP DP  RH WIND       PRES   REMARKS
GREELEY ARPT   FAIR      41  34  76 SE5       30.16F
AKRON          FAIR      40  30  67 S13       30.19F
BURLINGTON     NOT AVBL
WRAY           NOT AVBL
STERLING       FAIR      41  34  75 S10       30.16F
HOLYOKE        FAIR      43  36  75 S12       30.19F
FORT MORGAN    FAIR      39  32  75 S7        30.18F
$$

COZ086-089-092>099-230700-
...SOUTHEAST COLORADO...

CITY           SKY/WX    TMP DP  RH WIND       PRES   REMARKS
PUEBLO         FAIR      42  36  79 CALM      30.24F
LA JUNTA       FAIR      46  34  62 S7        30.24F
LAMAR          FAIR      38  33  82 SW6       30.24F
SPRINGFIELD      N/A     29  27  92 SW7       30.28F WCI  22
$$




USA.gov is the U.S. government's official web portal to all federal, state and local government web resources and services.